This is the latest recevied weather packets stored in our database for station/object WA6OOO. If no packets are shown the sender has not sent any weather packets the latest 10 day(s).
| Time | Temp. | Humidity | Pressure | Rain* | Wind** | Luminosity | Snow |
|---|---|---|---|---|---|---|---|
| 1777561847 | 15.56° C | 78% | 1016.5 hPa | 0 mm | - | 231 W/m² | - |
| 1777561543 | 15.56° C | 77% | 1016.5 hPa | 0 mm | - | 218 W/m² | - |
| 1777561239 | 15.56° C | 77% | 1016.7 hPa | 0 mm | - | 66 W/m² | - |
| 1777560938 | 15.56° C | 77% | 1016.4 hPa | 0 mm | - | 122 W/m² | - |
| 1777560635 | 15.56° C | 77% | 1016.5 hPa | 0 mm | - | 67 W/m² | - |
| 1777560333 | 16.11° C | 74% | 1016.4 hPa | 0 mm | - | 112 W/m² | - |
| 1777560031 | 15.56° C | 71% | 1016.5 hPa | 0 mm | - | 141 W/m² | - |
| 1777559726 | 15.56° C | 71% | 1016.4 hPa | 0 mm | - | 133 W/m² | - |
| 1777559423 | 15.56° C | 72% | 1016.3 hPa | 0 mm | - | 122 W/m² | - |
| 1777559121 | 15° C | 70% | 1016 hPa | 0 mm | - | 110 W/m² | - |
| 1777558821 | 15.56° C | 70% | 1016.3 hPa | 0 mm | - | 99 W/m² | - |
| 1777558516 | 15.56° C | 70% | 1016.2 hPa | 0 mm | - | 88 W/m² | - |
| 1777558213 | 15° C | 72% | 1016.3 hPa | 0 mm | - | 78 W/m² | - |
| 1777557909 | 14.44° C | 73% | 1016.2 hPa | 0 mm | - | 68 W/m² | - |
| 1777557606 | 13.89° C | 74% | 1016.3 hPa | 0 mm | - | 59 W/m² | - |
| 1777557302 | 13.33° C | 77% | 1016 hPa | 0 mm | - | 51 W/m² | - |
| 1777556998 | 12.78° C | 78% | 1016.3 hPa | 0 mm | - | 42 W/m² | - |
| 1777556694 | 12.22° C | 79% | 1016.1 hPa | 0 mm | - | 27 W/m² | - |
| 1777556390 | 12.22° C | 78% | 1016.1 hPa | 0 mm | - | 24 W/m² | - |
| 1777556086 | 12.22° C | 78% | 1016 hPa | 0 mm | - | 20 W/m² | - |
| 1777555785 | 12.22° C | 79% | 1016 hPa | 0 mm | - | 16 W/m² | - |
| 1777555482 | 12.22° C | 80% | 1016 hPa | 0 mm | - | 12 W/m² | - |
| 1777555178 | 12.22° C | 79% | 1015.9 hPa | 0 mm | - | 9 W/m² | - |
| 1777554876 | 12.22° C | 79% | 1015.9 hPa | 0 mm | - | 6 W/m² | - |
| 1777554572 | 12.22° C | 80% | 1015.9 hPa | 0 mm | - | 3 W/m² | - |
* Rain latest hour (hover to see other rain measurements)
** Current wind speed in m/s (hover to see current wind gust speed)